Location: Bannatyne
(13.0833°N, 59.5333°W)
Time: 06:24:26
(UTC+00:00)

Vanguard 2 Rocket - Pass Details

Date: 21 January 2020
Orbit: 554 x 3326 km, 32.9° (Epoch: 07 April)

Event Time Altitude Azimuth Distance (km) Brightness Sun altitude
Rises 15:43:11 0° 304° (NW) 4,978 10.4 56.4°
Reaches altitude 10° 15:45:55 10° 306° (NW) 4,286 10.2 56.5°
Maximum altitude 15:58:49 80° 33° (NNE) 2,742 10.2 56.9°
Drops below altitude 10° 16:18:49 10° 119° (ESE) 6,273 11.5 56.9°
Sets 16:23:48 0° 120° (ESE) 7,300 11.7 56.8°
